Home   Weather   Changchun   Past weeks

Flag for China Past Weather in Changchun, Jilin, China — Yesterday and Last 2 Weeks

Now
61 °F

Broken clouds.


Feels Like: 61 °F
Forecast: 59 / 64 °F
Wind: 6 mph from South

Location: Changchun Airport

Current Time: Sep 1, 2016 at 7:34:21 AM

Latest Report: Sep 1, 2016 at 7:00 AM


Visibility: N/A

Pressure: 29.27 "Hg

Humidity: 88%

Dew Point: 57 °F

Location of ChangchunLocation

Past Weather in Changchun — Graph

°F

Changchun Temperature Yesterday

Maximum temperature yesterday: 68 °F (at 3:00 PM)
Minimum temperature yesterday: 59 °F (at 12:00 AM)
Average temperature yesterday: 63 °F

High & Low Weather Summary for the Past Weeks

 TemperatureHumidityPressure
High86 °F (Aug 21, 1:00 PM)94% (Aug 17, 6:00 AM)30.01 "Hg (Aug 17, 6:00 AM)
Low50 °F (Aug 26, 5:00 AM)29% (Aug 26, 3:00 PM)29.03 "Hg (Aug 31, 11:00 AM)
Average69 °F71%29.75 "Hg
* Reported Aug 17 6:00 AM — Sep 1 6:00 AM, Changchun, Weather by CustomWeather, © 2016

Note: Actual official high and low records may vary slightly from our data, if they occured in-between our weather recording intervals... More about our weather records

Advertising

Changchun Weather History for the Previous 24 Hours

Scroll right to see more
 ConditionsComfort  
Time TempWeatherWind HumidityBarometerVisibility
6:00 AM
Thu, Sep 1
61 °FBroken clouds.3 mph88%29.24 "HgN/A
5:00 AM61 °FPassing clouds.6 mph88%29.21 "HgN/A
4:00 AM61 °FPassing clouds.6 mph88%29.21 "HgN/A
3:00 AM63 °FPassing clouds.3 mph88%29.18 "HgN/A
2:00 AM61 °FPassing clouds.1 mph94%29.18 "Hg4 mi
1:00 AM61 °FPassing clouds.1 mph94%29.18 "Hg4 mi
12:00 AM63 °FPassing clouds.3 mph94%29.15 "Hg4 mi
11:00 PM
Wed, Aug 31
63 °FPassing clouds.1 mph94%29.15 "Hg4 mi
10:00 PM64 °FPassing clouds.1 mph88%29.12 "HgN/A
9:00 PM64 °FPassing clouds.1 mph94%29.12 "HgN/A
8:00 PM66 °FPassing clouds.8 mph88%29.12 "HgN/A
7:00 PM66 °FPassing clouds.6 mph88%29.09 "HgN/A
6:00 PM68 °FPartly sunny.6 mph83%29.09 "HgN/A
5:00 PM68 °FPartly sunny.6 mph83%29.06 "HgN/A
4:00 PM68 °FPartly sunny.6 mph83%29.06 "HgN/A
3:00 PM68 °FPartly sunny.10 mph78%29.03 "HgN/A
2:00 PM66 °FMore clouds than sun.13 mph88%29.03 "HgN/A
1:00 PM64 °FLight rain. More clouds than sun.8 mph88%29.03 "Hg4 mi
12:00 PM64 °FLight rain. More clouds than sun.8 mph88%29.03 "Hg5 mi
11:00 AM63 °FLight rain. Mostly cloudy.8 mph94%29.03 "Hg4 mi
10:00 AM63 °FLight rain. Fog.10 mph88%29.06 "Hg3 mi
9:00 AM61 °FLight rain. More clouds than sun.10 mph94%29.09 "Hg4 mi
8:00 AM61 °FRain. Fog.8 mph88%29.09 "Hg1 mi
7:00 AM59 °FLight rain. Fog.10 mph94%29.12 "Hg2 mi
Weather by CustomWeather, © 2016

See weather overviewHow to use our weather pages